Location: Dehesa de la Cepeda
(40.6574°N, 4.3013°W)
Time: 15:51:10
(UTC+00:00)

Transit 2A Rocket - Pass Details

Date: 02 August 2021
Orbit: 586 x 916 km, 66.7° (Epoch: 23 September)

Event Time Altitude Azimuth Distance (km) Brightness Sun altitude
Rises 00:11:44 0° 319° (NW) 3,336 9.0 -31.5°
Reaches altitude 10° 00:14:23 10° 308° (NW) 2,450 8.0 -31.6°
Enters shadow 00:17:20 24° 282° (WNW) 1,706 6.8 -31.6°
